Lapse_Rate
5.8 5.6 5.6 5.8 5.8 6.0 6.1 6.0 5.9 6.0 5.9 5.7 5.6 5.8 5.8 5.8 5.8 5.6 5.3 5.2 5.2 5.1 5.0 5.0 5.0 5.3 5.5 5.6 5.9 5.9 5.9 6.1 6.2 6.2 6.2 6.1 6.0 6.0 5.8 5.6 5.5 5.5 5.5
5.9 5.8 5.9 5.9 5.9 6.0 6.0 6.0 5.9 6.0 6.1 5.9 5.8 5.8 5.9 5.7 5.6 5.6 5.5 5.3 5.2 5.1 5.0 5.0 5.2 5.4 5.6 5.7 5.8 5.9 6.0 6.0 6.1 6.2 6.2 6.2 6.1 5.9 5.8 5.7 5.6 5.5 5.4
6.3 6.0 6.0 6.0 6.0 6.0 6.0 5.9 5.9 5.9 6.1 6.2 6.0 6.0 6.0 5.9 5.8 5.7 5.4 5.4 5.4 5.2 5.1 5.3 5.3 5.4 5.6 5.8 5.9 5.9 6.1 6.0 6.0 6.1 6.0 6.1 6.1 6.0 5.8 5.6 5.5 5.4 5.3
6.3 6.2 6.0 6.1 6.1 6.1 6.0 6.0 5.9 5.9 5.9 6.1 6.1 6.0 6.0 6.1 6.0 5.8 5.7 5.4 5.2 5.5 5.5 5.4 5.4 5.3 5.4 5.6 5.7 5.8 6.0 6.0 5.9 6.0 5.9 5.9 5.9 5.9 5.7 5.6 5.4 5.3 5.2
6.3 6.2 6.2 6.1 6.0 6.0 6.0 6.1 6.1 6.0 6.1 6.0 6.0 6.1 6.0 6.0 6.0 6.1 5.8 5.7 5.6 5.5 5.7 5.7 5.6 5.5 5.4 5.4 5.5 5.6 5.8 5.8 5.9 5.8 5.7 5.7 5.7 5.6 5.6 5.6 5.4 5.3 5.2
6.3 6.2 6.2 6.2 6.1 6.0 6.0 6.1 6.2 6.1 6.1 6.2 6.1 6.1 6.1 6.1 5.9 6.0 6.0 5.9 5.8 5.7 5.5 5.7 5.8 5.7 5.6 5.5 5.5 5.4 5.5 5.6 5.6 5.5 5.4 5.6 5.5 5.5 5.4 5.4 5.3 5.2 5.3
6.2 6.2 6.3 6.2 6.2 6.1 6.0 6.0 6.1 6.2 6.1 6.0 6.1 6.1 6.1 6.1 6.1 6.1 6.0 6.0 5.9 5.9 5.8 5.6 5.6 5.8 5.7 5.7 5.6 5.5 5.4 5.4 5.4 5.2 5.2 5.3 5.2 5.3 5.3 5.3 5.3 5.2 5.1
6.2 6.2 6.2 6.2 6.0 5.9 5.9 6.1 6.1 6.0 6.1 6.1 6.2 6.1 6.1 6.1 6.0 6.1 6.0 5.9 6.0 5.9 5.9 5.9 5.8 5.8 5.8 5.9 5.7 5.6 5.5 5.4 5.3 5.2 5.1 5.2 5.2 5.2 5.1 5.1 5.1 5.2 5.1
6.1 6.1 6.1 6.2 6.1 5.9 5.8 5.7 5.7 5.8 6.1 6.1 6.0 6.0 6.1 6.1 6.0 5.9 5.8 5.9 6.1 6.1 6.0 5.9 5.9 5.9 5.9 5.8 5.8 5.8 5.6 5.4 5.3 5.2 5.1 5.1 5.1 5.1 5.1 5.1 5.0 5.1 5.1
6.0 6.0 5.9 6.0 6.0 5.9 5.9 5.8 5.9 5.9 5.8 5.8 6.0 6.0 5.7 5.9 6.0 6.0 5.9 5.7 5.7 6.0 6.2 6.0 5.9 5.9 5.9 5.9 5.8 5.7 5.7 5.7 5.5 5.3 5.2 5.2 5.1 5.1 5.0 5.0 5.1 5.1 5.1
6.1 6.0 6.1 6.0 6.0 6.0 5.9 6.0 6.0 6.0 5.9 5.9 5.8 5.8 5.7 5.8 5.8 6.0 5.9 5.9 5.8 5.8 5.8 6.0 5.9 5.9 6.0 5.9 5.9 5.9 5.8 5.7 5.6 5.5 5.4 5.2 5.2 5.2 5.1 5.0 5.0 5.1 5.0
6.0 6.0 6.1 6.2 6.1 6.2 6.2 6.2 6.2 6.2 6.2 5.9 5.8 5.9 5.7 5.7 5.8 5.9 5.9 5.8 5.6 5.7 5.7 5.7 5.9 5.9 5.9 6.0 5.9 6.0 6.1 5.9 5.9 5.7 5.6 5.5 5.3 5.3 5.1 5.1 5.1 5.1 5.0
6.1 6.1 6.2 6.2 6.1 6.2 6.2 6.2 6.2 6.2 6.4 6.4 6.2 6.0 5.9 5.8 5.6 5.9 5.9 5.8 5.8 5.7 5.7 5.7 5.8 5.9 5.9 5.9 5.9 6.0 6.2 6.2 6.0 5.9 5.8 5.7 5.5 5.4 5.3 5.2 5.2 5.2 5.1
6.1 6.2 6.3 6.4 6.4 6.5 6.5 6.5 6.4 6.3 6.2 6.2 6.2 6.2 6.0 6.0 5.9 6.0 6.0 6.0 5.9 5.7 5.7 5.7 5.7 5.7 5.9 6.0 6.0 5.9 6.0 6.2 6.2 6.1 5.9 5.9 5.8 5.6 5.5 5.4 5.2 5.3 5.3
6.2 6.2 6.2 6.3 6.3 6.3 6.3 6.3 6.3 6.3 6.3 6.3 6.2 6.1 6.2 6.1 5.9 6.0 6.0 5.9 5.9 5.9 5.9 5.6 5.7 5.8 5.9 6.0 6.1 6.1 5.9 5.9 6.2 6.3 6.2 6.0 5.9 5.8 5.7 5.5 5.6 5.5 5.4
6.3 6.3 6.2 6.2 6.2 6.2 6.2 6.2 6.2 6.2 6.2 6.2 6.3 6.3 6.2 6.1 6.1 6.0 5.9 6.1 6.1 6.0 6.0 5.9 5.7 5.8 5.9 6.0 6.1 6.1 6.0 6.0 6.0 6.2 6.3 6.3 6.2 6.0 5.8 5.8 5.8 5.9 5.7
6.2 6.3 6.3 6.2 6.1 6.1 6.1 6.1 6.2 6.2 6.2 6.1 6.1 6.1 6.1 6.1 6.1 5.9 6.1 6.0 6.0 6.1 6.1 6.2 6.0 5.9 5.9 5.9 6.2 6.1 6.0 6.0 6.3 6.1 6.2 6.2 6.4 6.4 6.1 5.9 5.9 5.9 5.9
6.1 6.1 6.1 6.2 6.2 6.1 6.2 6.2 6.2 6.2 6.1 6.1 6.0 6.0 6.0 6.0 6.1 6.1 6.1 6.1 6.2 6.0 5.9 6.0 6.2 6.2 6.2 5.9 6.0 6.3 6.2 5.9 6.2 6.1 6.1 6.2 6.2 6.3 6.2 6.0 5.9 5.9 6.0
6.2 6.4 6.3 6.3 6.3 6.1 6.1 6.2 6.3 6.3 6.3 6.2 6.1 6.0 6.0 6.0 5.9 6.0 6.0 6.0 5.8 6.0 5.9 5.9 5.8 6.0 6.3 6.3 6.0 6.0 6.1 5.9 6.1 6.1 6.1 6.0 6.1 6.0 6.1 6.0 6.0 6.1 6.0
6.0 6.1 6.2 6.2 6.2 6.2 6.2 6.2 6.3 6.4 6.5 6.4 6.3 6.2 6.0 6.0 6.0 5.9 5.9 6.0 6.0 5.8 5.6 5.7 5.9 5.9 5.9 6.2 6.2 6.0 5.8 5.6 5.7 5.6 6.1 5.9 6.2 6.3 6.2 6.1 6.1 6.1 6.0
5.8 5.9 5.9 6.0 6.0 6.0 6.1 6.1 6.0 6.1 6.1 6.1 6.1 6.0 6.1 6.1 6.0 5.9 5.7 5.9 6.0 6.1 6.0 5.8 5.5 5.7 5.9 5.9 6.0 6.1 6.1 5.3 5.3 4.8 5.8 6.0 6.2 6.0 5.8 5.7 5.7 6.0 6.0
5.7 5.8 5.8 5.9 6.0 6.1 6.1 6.1 6.1 6.1 6.2 6.1 5.9 5.7 5.6 5.6 5.6 5.6 5.6 5.8 5.9 6.0 6.0 6.1 5.9 5.8 5.7 6.0 6.0 6.0 5.8 6.0 6.0 5.7 4.9 5.6 6.1 6.1 5.9 5.3 5.3 5.4 5.7
5.4 5.6 5.7 5.6 5.6 5.7 5.7 5.8 5.8 5.9 6.1 6.3 6.2 5.9 5.6 5.4 5.4 5.4 5.4 5.5 5.7 5.8 6.1 6.0 6.0 6.0 5.9 5.8 6.4 5.7 5.6 5.8 6.1 6.5 6.4 6.0 5.9 6.3 6.2 5.7 5.6 5.3 5.7
5.1 5.0 5.1 5.2 5.3 5.3 5.3 5.6 5.6 5.8 6.0 6.1 6.1 5.9 5.5 5.6 5.3 5.1 5.2 5.5 5.8 6.0 6.1 6.2 6.1 6.1 6.0 6.0 6.1 6.4 5.9 5.9 5.9 6.1 6.3 6.5 6.5 6.3 6.3 6.1 5.9 5.9 6.0
5.2 5.4 5.5 5.4 5.4 5.5 5.4 5.6 5.6 5.9 6.0 5.8 5.3 5.1 5.1 5.2 5.4 5.5 5.3 5.4 5.6 5.8 6.1 6.2 6.2 6.3 6.2 6.1 6.1 6.1 6.3 6.2 6.0 5.6 5.9 6.5 6.5 6.5 6.5 6.0 6.1 6.2 6.1
5.6 5.6 5.8 5.6 5.3 5.4 5.3 5.4 5.2 5.9 6.2 5.6 5.1 4.9 4.8 4.9 5.3 5.5 5.6 5.9 5.9 5.7 5.9 6.1 6.1 6.2 6.4 6.4 6.2 6.1 6.1 6.1 6.1 5.8 5.5 5.8 6.0 6.5 6.3 6.2 6.0 5.9 5.7
Wind_Speed
4 7 3 5 11 10 10 10 10 10 10 10 10 9 8 7 7 6 7 9 9 12 10 10 11 12 12 11 11 13 15 15 16 17 16 16 17 17 16 15 13 16 18
8 5 4 5 6 10 10 9 8 10 10 10 10 9 8 6 5 7 6 9 11 11 10 11 12 12 13 12 11 13 13 15 14 14 15 16 16 14 14 13 13 17 18
7 6 4 9 7 8 10 10 8 12 10 9 8 8 7 5 3 3 5 10 12 11 11 11 12 14 13 13 12 11 12 13 13 12 11 12 14 14 14 14 12 15 16
8 6 6 12 10 9 10 10 10 11 10 9 7 5 2 3 4 3 2 10 12 11 11 11 12 13 12 12 11 9 10 9 9 10 6 6 12 13 13 12 13 13 14
9 7 4 12 11 10 9 9 6 12 11 9 7 4 3 3 7 4 6 12 12 11 11 11 11 11 10 8 7 7 8 7 8 7 9 8 10 12 12 11 12 12 12
9 8 2 10 10 8 9 9 7 11 11 9 7 4 3 5 8 11 13 14 13 12 11 11 10 9 7 5 4 7 9 8 7 6 7 8 9 12 11 11 12 10 10
9 11 8 1 4 4 4 6 5 4 10 8 6 5 3 4 9 11 11 11 11 11 10 10 10 9 7 4 3 6 8 7 5 5 5 6 6 12 10 8 9 10 9
9 12 14 14 11 6 2 2 4 1 5 7 6 5 4 2 7 9 9 10 10 10 9 9 9 8 7 4 2 3 6 7 4 3 3 4 3 9 9 9 8 7 7
11 11 13 16 14 13 11 8 5 4 4 5 5 4 4 4 7 10 9 9 9 9 9 9 9 9 8 6 3 3 7 6 4 4 5 3 2 7 9 8 8 6 6
7 9 11 12 12 12 13 12 9 7 5 6 5 6 6 6 7 8 8 9 10 10 10 10 9 9 9 7 6 4 7 6 4 5 5 5 5 6 7 6 7 6 6
5 7 10 10 10 12 11 11 10 6 6 5 5 7 7 6 6 7 9 10 10 11 10 10 9 9 9 8 7 6 5 6 6 6 6 7 8 8 7 8 7 7 6
9 9 6 7 7 7 5 6 7 7 5 3 3 4 6 7 8 8 10 12 12 10 10 11 10 10 10 9 9 8 7 6 7 7 7 9 9 9 9 9 9 8 8
6 5 8 10 10 8 7 7 5 4 4 4 3 5 6 6 7 7 8 10 11 12 10 11 10 10 10 9 8 9 9 8 7 8 10 12 12 12 11 11 11 11 10
8 8 8 10 9 8 7 6 6 6 6 4 4 5 6 6 8 8 8 10 10 10 10 11 10 12 11 11 10 10 11 10 9 9 9 14 14 14 13 12 13 13 13
7 9 9 10 9 9 7 6 6 5 4 6 6 6 5 6 5 8 10 10 10 10 11 11 12 12 12 12 12 11 12 13 13 11 10 12 16 15 15 15 14 15 15
8 9 9 9 9 9 7 5 5 5 5 5 5 5 7 6 6 6 7 8 11 12 12 12 11 8 9 13 12 14 13 13 14 14 12 12 15 18 17 18 17 16 16
6 7 8 9 11 8 7 8 7 7 6 6 6 7 8 7 8 9 6 4 9 12 14 13 12 11 6 10 12 13 14 15 15 16 16 14 13 16 21 20 20 19 18
7 9 8 7 9 9 8 8 8 8 8 8 8 7 8 9 9 8 6 5 9 9 12 7 8 7 8 8 9 9 9 13 15 17 16 16 15 13 14 22 22 22 21
8 9 10 11 10 10 11 10 10 10 9 10 10 9 11 10 11 10 8 10 13 9 6 6 6 7 7 7 8 9 9 9 10 14 17 18 18 16 15 16 23 25 23
8 7 8 8 10 10 9 9 8 6 8 8 9 10 12 12 12 11 10 11 12 7 8 7 8 7 7 7 7 9 9 9 8 10 12 17 16 17 17 17 16 19 27
6 8 9 10 10 7 7 7 5 6 8 8 10 13 15 13 13 11 9 9 10 8 10 11 9 9 7 7 5 8 6 7 7 8 11 12 10 15 16 17 18 17 17
9 10 10 9 11 8 6 6 5 7 8 9 12 15 16 17 16 14 10 9 9 8 11 12 11 9 7 6 4 3 4 3 7 10 10 12 13 10 9 17 18 19 18
9 10 10 11 11 10 11 7 7 7 5 5 7 8 9 14 14 14 14 9 9 8 7 10 11 13 9 8 11 6 2 4 3 5 13 11 14 9 10 11 16 20 17
10 9 10 11 12 11 12 10 12 9 10 8 9 9 9 15 15 14 13 11 10 8 9 9 9 10 10 10 6 8 10 3 3 3 4 4 6 9 10 8 9 13 16
9 9 9 10 10 11 10 11 10 11 10 7 9 12 12 11 14 14 14 10 10 8 9 10 10 10 9 9 9 6 7 8 7 7 8 6 2 5 5 8 8 10 13
9 8 8 11 12 12 12 14 14 14 12 9 8 8 9 8 8 10 12 10 10 10 10 9 10 11 10 10 9 10 8 4 5 4 5 7 9 8 6 7 5 6 12
Wind_Direction
24 335 284 184 141 132 122 109 102 101 108 113 115 116 115 118 122 125 133 131 127 101 102 101 102 106 106 101 94 90 89 85 80 84 89 91 93 88 85 82 69 73 88
304 306 243 209 168 140 132 120 114 113 112 119 124 126 129 136 131 131 153 130 113 109 112 114 113 111 106 101 99 96 93 90 84 80 87 88 88 89 92 86 67 74 81
311 305 241 200 175 154 151 143 142 126 124 122 128 132 137 148 147 123 122 134 122 121 119 117 119 114 112 107 105 99 96 95 91 90 97 101 97 96 87 80 91 75 77
312 308 262 195 179 169 164 179 154 135 131 133 136 129 130 210 187 186 198 145 126 125 123 124 122 123 118 111 101 104 104 99 96 101 117 115 106 101 107 92 85 90 78
351 333 236 188 181 176 177 192 190 146 141 145 148 131 24 101 181 200 157 137 124 123 129 131 131 131 120 111 107 122 127 113 110 108 99 119 117 108 106 106 100 93 94
0 6 119 187 184 186 187 200 225 163 153 149 152 144 47 131 125 119 124 123 125 128 140 144 147 143 124 120 105 127 138 127 121 116 119 116 125 125 122 119 118 104 95
16 32 58 96 183 187 210 222 229 191 147 150 154 159 123 139 135 132 130 131 137 142 150 156 159 155 146 130 87 141 142 145 130 115 114 133 161 126 126 112 108 112 104
33 37 50 54 60 54 33 254 259 237 177 161 164 174 168 149 160 150 149 152 155 158 159 167 172 171 165 154 97 151 160 156 158 154 145 138 127 144 130 130 128 124 121
30 38 51 48 45 45 42 31 10 324 257 221 185 189 205 191 178 169 172 173 173 173 174 178 185 186 185 176 150 151 175 181 186 184 178 169 182 131 136 146 153 147 141
31 31 35 43 45 47 46 32 14 357 335 301 232 202 219 227 208 196 193 195 190 189 187 187 193 198 199 193 183 171 188 202 213 203 209 212 221 180 157 168 172 168 163
20 28 21 24 24 27 29 22 24 9 340 309 276 243 213 224 230 229 217 215 214 205 201 201 202 204 207 209 207 197 195 215 215 217 220 228 224 201 193 188 188 188 189
346 345 3 7 2 356 0 3 356 7 357 302 281 268 238 228 229 236 229 225 227 224 221 219 216 215 212 216 216 214 219 218 224 228 228 224 232 224 208 204 202 205 209
315 318 338 345 343 342 336 335 323 331 348 346 296 241 220 228 239 238 238 230 227 227 231 231 234 232 226 223 223 226 221 224 221 229 241 236 235 238 224 216 217 216 217
326 317 332 340 336 333 326 319 314 320 324 328 339 319 268 245 230 227 223 232 235 231 227 229 233 237 236 234 229 235 233 227 230 232 242 243 240 238 240 226 226 227 227
325 320 317 322 318 310 304 303 305 313 314 317 320 315 311 287 255 235 228 218 227 234 233 231 233 238 240 239 237 231 237 234 233 237 241 243 237 241 244 248 232 234 234
327 329 324 323 317 303 286 283 290 292 296 297 295 293 296 284 280 283 245 228 224 208 226 236 230 230 236 238 239 236 235 239 239 234 241 245 241 240 243 244 248 242 241
341 333 344 341 345 336 316 307 296 293 295 286 285 291 285 278 277 277 271 269 236 225 218 218 227 226 228 232 241 239 238 235 237 238 234 236 243 246 241 240 243 246 246
329 333 325 339 340 343 342 330 315 305 292 279 277 277 275 275 272 272 275 269 268 249 221 218 222 219 219 225 240 239 237 240 241 239 237 232 230 237 244 236 237 243 245
324 328 329 332 332 329 323 318 308 298 287 284 285 278 272 269 267 260 258 260 268 270 257 236 228 226 223 223 229 228 236 237 240 244 246 234 229 229 237 244 235 237 242
322 324 320 321 323 326 319 313 303 292 283 281 278 279 280 274 271 267 264 261 259 255 257 249 244 222 232 235 230 235 230 229 233 245 244 246 227 226 229 231 237 240 241
332 333 336 331 332 328 326 323 317 310 306 298 292 284 280 277 277 269 263 265 261 256 253 252 256 247 221 236 244 252 245 230 222 244 251 248 237 221 230 236 233 235 238
317 323 327 322 317 318 310 298 285 293 289 286 285 279 274 273 268 262 255 256 254 253 256 255 251 251 248 197 232 223 261 214 234 226 226 243 233 218 223 242 244 237 236
316 316 313 309 307 307 302 299 293 282 278 283 281 278 268 262 258 256 254 247 247 246 244 250 253 249 250 231 210 233 212 223 177 214 233 231 240 225 228 218 234 246 241
316 306 303 303 305 306 304 301 295 288 288 285 279 277 272 268 261 255 251 249 247 244 243 244 247 252 249 246 226 227 237 268 222 232 191 230 245 245 242 230 224 222 232
309 307 304 299 298 298 300 296 291 287 283 283 282 278 275 268 263 259 254 250 245 240 238 236 244 243 248 252 250 227 234 240 248 244 267 247 216 237 242 248 237 232 223
311 312 316 316 317 315 313 306 303 287 287 287 271 284 282 269 263 251 251 248 248 243 238 237 237 243 247 251 256 255 240 221 208 219 246 264 261 263 238 229 217 229 226